Location: ??????
(38.0677°N, 22.9870°E)
Time: 17:44:49
(UTC+00:00)

CZ-2C R/B - Pass Details

Date: 23 May 2024
Orbit: 703 x 904 km, 98.2° (Epoch: 23 June)

Event Time Altitude Azimuth Distance (km) Brightness Sun altitude
Rises 01:37:52 0° 1° (N) 3,537 7.1 -15.8°
Reaches altitude 10° 01:40:34 10° 351° (N) 2,590 6.2 -15.5°
Maximum altitude 01:45:29 30° 293° (WNW) 1,565 4.4 -14.7°
Enters shadow 01:48:30 19° 248° (WSW) 1,994 4.6 -14.3°
